contact:dominique.lefevre@mio.osupytheas.fr, maurice.libes@osupytheas.fr, didier.mallarino@osupytheas.fr
Project:EMSO http://www.emso-fr.org/EMSO-France
Depth: 2436.0 m
Title:EMSO Ligure Ouest : Data MII capteur CSTAR
DateTime,Latitude,Longitude,Instrument_Serial,Reference_Counts,Signal_Counts,Corrected_Signal_raw_counts,Calculated_Beam_c_inverse_meters,Internal_thermistor_counts
DateTime,Latitude,Longitude,Instrument_Serial,Reference_Counts,Signal_Counts,Corrected_Signal_raw_counts,Calculated_Beam_c_inverse_meters,Internal_thermistor_counts
2023-05-20T00:00:59,42.805,6.029,CST-1368DR,4293,4696,11612,01.185,552
2023-05-20T00:04:00,42.805,6.029,CST-1368DR,4293,4689,11594,01.191,552
2023-05-20T00:07:02,42.805,6.029,CST-1368DR,4293,4688,11593,01.192,552
2023-05-20T00:10:04,42.805,6.029,CST-1368DR,4293,4695,11609,01.186,552
2023-05-20T00:13:05,42.805,6.029,CST-1368DR,4293,4694,11606,01.187,552
2023-05-20T00:16:07,42.805,6.029,CST-1368DR,4293,4688,11593,01.192,552
2023-05-20T00:19:08,42.805,6.029,CST-1368DR,4293,4689,11596,01.191,552
2023-05-20T00:22:10,42.805,6.029,CST-1368DR,4293,4696,11613,01.185,552
2023-05-20T00:25:11,42.805,6.029,CST-1368DR,4293,4694,11608,01.186,552
2023-05-20T00:28:13,42.805,6.029,CST-1368DR,4293,4692,11602,01.188,552
2023-05-20T00:31:15,42.805,6.029,CST-1368DR,4293,4694,11607,01.187,552
2023-05-20T00:34:16,42.805,6.029,CST-1368DR,4293,4688,11593,01.192,552
2023-05-20T00:37:18,42.805,6.029,CST-1368DR,4293,4694,11606,01.187,552
2023-05-20T00:40:19,42.805,6.029,CST-1368DR,4293,4689,11596,01.191,552
2023-05-20T00:43:21,42.805,6.029,CST-1368DR,4293,4695,11609,01.186,552
2023-05-20T00:46:23,42.805,6.029,CST-1368DR,4293,4689,11595,01.191,552
2023-05-20T00:49:24,42.805,6.029,CST-1368DR,4293,4693,11604,01.188,552
2023-05-20T00:52:26,42.805,6.029,CST-1368DR,4293,4685,11585,01.194,552
2023-05-20T00:55:27,42.805,6.029,CST-1368DR,4293,4692,11603,01.188,552
2023-05-20T00:58:29,42.805,6.029,CST-1368DR,4293,4696,11611,01.185,552
2023-05-20T01:01:30,42.805,6.029,CST-1368DR,4293,4686,11588,01.193,552
2023-05-20T01:04:32,42.805,6.029,CST-1368DR,4293,4680,11572,01.199,552
2023-05-20T01:07:34,42.805,6.029,CST-1368DR,4293,4697,11615,01.184,552
2023-05-20T01:10:35,42.805,6.029,CST-1368DR,4293,4686,11587,01.194,552
2023-05-20T01:13:37,42.805,6.029,CST-1368DR,4293,4676,11563,01.202,552
2023-05-20T01:16:38,42.805,6.029,CST-1368DR,4293,4694,11606,01.187,552
2023-05-20T01:19:40,42.805,6.029,CST-1368DR,4293,4683,11579,01.196,552
2023-05-20T01:22:41,42.805,6.029,CST-1368DR,4293,4688,11593,01.192,552
2023-05-20T01:25:43,42.805,6.029,CST-1368DR,4293,4679,11571,01.199,552
2023-05-20T01:28:45,42.805,6.029,CST-1368DR,4293,4692,11603,01.188,552
2023-05-20T01:31:46,42.805,6.029,CST-1368DR,4293,4691,11600,01.189,552
2023-05-20T01:34:48,42.805,6.029,CST-1368DR,4293,4689,11595,01.191,552
2023-05-20T01:37:49,42.805,6.029,CST-1368DR,4293,4691,11601,01.189,552
2023-05-20T01:40:51,42.805,6.029,CST-1368DR,4293,4697,11614,01.184,552
2023-05-20T01:43:53,42.805,6.029,CST-1368DR,4293,4678,11568,01.200,551
2023-05-20T01:46:54,42.805,6.029,CST-1368DR,4293,4682,11579,01.196,552
2023-05-20T01:49:56,42.805,6.029,CST-1368DR,4293,4695,11610,01.186,552
2023-05-20T01:52:57,42.805,6.029,CST-1368DR,4293,4690,11598,01.190,552
2023-05-20T01:55:59,42.805,6.029,CST-1368DR,4293,4663,11530,01.213,552
2023-05-20T01:59:00,42.805,6.029,CST-1368DR,4293,4695,11610,01.186,552
2023-05-20T02:02:02,42.805,6.029,CST-1368DR,4293,4696,11613,01.185,552
2023-05-20T02:05:04,42.805,6.029,CST-1368DR,4293,4696,11613,01.185,552
2023-05-20T02:08:05,42.805,6.029,CST-1368DR,4293,4695,11611,01.185,552
2023-05-20T02:11:07,42.805,6.029,CST-1368DR,4293,4693,11604,01.188,552
2023-05-20T02:14:08,42.805,6.029,CST-1368DR,4293,4697,11614,01.184,552
2023-05-20T02:17:10,42.805,6.029,CST-1368DR,4293,4697,11615,01.184,552
2023-05-20T02:20:11,42.805,6.029,CST-1368DR,4293,4695,11610,01.186,552
2023-05-20T02:23:13,42.805,6.029,CST-1368DR,4293,4693,11605,01.187,552
2023-05-20T02:26:15,42.805,6.029,CST-1368DR,4293,4695,11610,01.186,552
2023-05-20T02:29:16,42.805,6.029,CST-1368DR,4293,4699,11619,01.183,552
2023-05-20T02:32:18,42.805,6.029,CST-1368DR,4293,4695,11609,01.186,552
2023-05-20T02:35:19,42.805,6.029,CST-1368DR,4293,4695,11610,01.186,552
2023-05-20T02:38:21,42.805,6.029,CST-1368DR,4293,4693,11604,01.188,552
2023-05-20T02:41:23,42.805,6.029,CST-1368DR,4293,4695,11610,01.186,552
2023-05-20T02:44:24,42.805,6.029,CST-1368DR,4293,4696,11612,01.185,552
2023-05-20T02:47:26,42.805,6.029,CST-1368DR,4293,4695,11610,01.186,552
2023-05-20T02:50:27,42.805,6.029,CST-1368DR,4293,4687,11589,01.193,552
2023-05-20T02:53:29,42.805,6.029,CST-1368DR,4293,4690,11598,01.190,552
2023-05-20T02:56:30,42.805,6.029,CST-1368DR,4293,4693,11605,01.187,552
2023-05-20T02:59:32,42.805,6.029,CST-1368DR,4293,4694,11606,01.187,552
2023-05-20T03:02:34,42.805,6.029,CST-1368DR,4293,4688,11593,01.192,552
2023-05-20T03:05:35,42.805,6.029,CST-1368DR,4293,4697,11614,01.184,552
2023-05-20T03:08:37,42.805,6.029,CST-1368DR,4293,4698,11616,01.184,552
2023-05-20T03:11:38,42.805,6.029,CST-1368DR,4293,4696,11612,01.185,552
2023-05-20T03:14:40,42.805,6.029,CST-1368DR,4293,4697,11614,01.184,552
2023-05-20T03:17:41,42.805,6.029,CST-1368DR,4293,4686,11589,01.193,552
2023-05-20T03:20:43,42.805,6.029,CST-1368DR,4293,4680,11573,01.198,552
2023-05-20T03:23:45,42.805,6.029,CST-1368DR,4293,4691,11600,01.189,552
2023-05-20T03:26:46,42.805,6.029,CST-1368DR,4293,4692,11601,01.189,552
2023-05-20T03:29:48,42.805,6.029,CST-1368DR,4293,4686,11588,01.193,552
2023-05-20T03:32:49,42.805,6.029,CST-1368DR,4293,4689,11595,01.191,552
2023-05-20T03:35:51,42.805,6.029,CST-1368DR,4293,4689,11595,01.191,552
2023-05-20T03:38:52,42.805,6.029,CST-1368DR,4293,4697,11614,01.184,552
2023-05-20T03:41:54,42.805,6.029,CST-1368DR,4293,4685,11586,01.194,552
2023-05-20T03:44:56,42.805,6.029,CST-1368DR,4293,4686,11589,01.193,552
2023-05-20T03:47:57,42.805,6.029,CST-1368DR,4293,4695,11610,01.186,552
2023-05-20T03:50:59,42.805,6.029,CST-1368DR,4293,4694,11608,01.186,552
2023-05-20T03:54:00,42.805,6.029,CST-1368DR,4293,4682,11578,01.197,552
2023-05-20T03:57:02,42.805,6.029,CST-1368DR,4293,4678,11567,01.201,552
2023-05-20T04:00:04,42.805,6.029,CST-1368DR,4293,4692,11601,01.189,552
2023-05-20T04:03:05,42.805,6.029,CST-1368DR,4293,4692,11601,01.189,552
2023-05-20T04:06:07,42.805,6.029,CST-1368DR,4293,4695,11611,01.185,552
2023-05-20T04:09:08,42.805,6.029,CST-1368DR,4293,4698,11617,01.183,552
2023-05-20T04:12:10,42.805,6.029,CST-1368DR,4293,4696,11611,01.185,552
2023-05-20T04:15:11,42.805,6.029,CST-1368DR,4293,4687,11589,01.193,552
2023-05-20T04:18:13,42.805,6.029,CST-1368DR,4293,4694,11608,01.186,552
2023-05-20T04:21:15,42.805,6.029,CST-1368DR,4293,4691,11600,01.189,552
2023-05-20T04:24:16,42.805,6.029,CST-1368DR,4293,4693,11605,01.187,552
2023-05-20T04:27:18,42.805,6.029,CST-1368DR,4293,4689,11594,01.191,552
2023-05-20T04:30:19,42.805,6.029,CST-1368DR,4293,4689,11594,01.191,552
2023-05-20T04:33:21,42.805,6.029,CST-1368DR,4293,4694,11607,01.187,552
2023-05-20T04:36:22,42.805,6.029,CST-1368DR,4293,4694,11606,01.187,552
2023-05-20T04:39:24,42.805,6.029,CST-1368DR,4293,4698,11618,01.183,552
2023-05-20T04:42:26,42.805,6.029,CST-1368DR,4293,4696,11612,01.185,552
2023-05-20T04:45:27,42.805,6.029,CST-1368DR,4293,4698,11618,01.183,552
2023-05-20T04:48:29,42.805,6.029,CST-1368DR,4293,4697,11615,01.184,552
2023-05-20T04:51:30,42.805,6.029,CST-1368DR,4293,4698,11618,01.183,552
2023-05-20T04:54:32,42.805,6.029,CST-1368DR,4293,4691,11600,01.189,552
2023-05-20T04:57:34,42.805,6.029,CST-1368DR,4293,4698,11617,01.183,552
2023-05-20T05:00:35,42.805,6.029,CST-1368DR,4293,4697,11614,01.184,552
2023-05-20T05:03:37,42.805,6.029,CST-1368DR,4293,4695,11611,01.185,552
2023-05-20T05:06:38,42.805,6.029,CST-1368DR,4293,4696,11611,01.185,552
2023-05-20T05:09:40,42.805,6.029,CST-1368DR,4293,4697,11614,01.184,552
2023-05-20T05:12:41,42.805,6.029,CST-1368DR,4293,4696,11613,01.185,552
2023-05-20T05:15:43,42.805,6.029,CST-1368DR,4293,4697,11614,01.184,552
2023-05-20T05:18:45,42.805,6.029,CST-1368DR,4293,4686,11587,01.194,552
2023-05-20T05:21:46,42.805,6.029,CST-1368DR,4293,4697,11614,01.184,552
2023-05-20T05:24:48,42.805,6.029,CST-1368DR,4293,4697,11614,01.184,552
2023-05-20T05:27:49,42.805,6.029,CST-1368DR,4293,4695,11610,01.186,552
2023-05-20T05:30:51,42.805,6.029,CST-1368DR,4293,4694,11606,01.187,552
2023-05-20T05:33:52,42.805,6.029,CST-1368DR,4293,4687,11590,01.193,552
2023-05-20T05:36:54,42.805,6.029,CST-1368DR,4293,4690,11598,01.190,552
2023-05-20T05:39:56,42.805,6.029,CST-1368DR,4293,4690,11597,01.190,552
2023-05-20T05:42:57,42.805,6.029,CST-1368DR,4293,4693,11604,01.188,552
2023-05-20T05:45:59,42.805,6.029,CST-1368DR,4293,4687,11590,01.193,552
2023-05-20T05:49:00,42.805,6.029,CST-1368DR,4293,4697,11615,01.184,552
2023-05-20T05:52:02,42.805,6.029,CST-1368DR,4293,4685,11586,01.194,552
2023-05-20T05:55:03,42.805,6.029,CST-1368DR,4293,4686,11589,01.193,552
2023-05-20T05:58:05,42.805,6.029,CST-1368DR,4293,4682,11578,01.197,552
2023-05-20T06:01:07,42.805,6.029,CST-1368DR,4293,4686,11587,01.194,552
2023-05-20T06:04:08,42.805,6.029,CST-1368DR,4292,4647,11493,01.226,552
2023-05-20T06:07:10,42.805,6.029,CST-1368DR,4293,4697,11614,01.184,552
2023-05-20T06:10:11,42.805,6.029,CST-1368DR,4293,4699,11621,01.182,552
2023-05-20T06:13:13,42.805,6.029,CST-1368DR,4293,4684,11584,01.195,552
2023-05-20T06:16:15,42.805,6.029,CST-1368DR,4293,4689,11595,01.191,552
2023-05-20T06:19:16,42.805,6.029,CST-1368DR,4293,4684,11584,01.195,552
2023-05-20T06:22:18,42.805,6.029,CST-1368DR,4293,4696,11613,01.185,552
2023-05-20T06:25:19,42.805,6.029,CST-1368DR,4293,4688,11593,01.192,552
2023-05-20T06:28:21,42.805,6.029,CST-1368DR,4293,4695,11610,01.186,552
2023-05-20T06:31:25,42.805,6.029,CST-1368DR,4293,4695,11611,01.185,552
2023-05-20T06:34:27,42.805,6.029,CST-1368DR,4293,4680,11573,01.198,552
2023-05-20T06:37:28,42.805,6.029,CST-1368DR,4293,4680,11574,01.198,552
2023-05-20T06:40:30,42.805,6.029,CST-1368DR,4293,4685,11586,01.194,552
2023-05-20T06:43:32,42.805,6.029,CST-1368DR,4293,4695,11610,01.186,552
2023-05-20T06:46:33,42.805,6.029,CST-1368DR,4293,4679,11569,01.200,552
2023-05-20T06:49:35,42.805,6.029,CST-1368DR,4293,4691,11600,01.189,552
2023-05-20T06:52:36,42.805,6.029,CST-1368DR,4293,4683,11580,01.196,552
2023-05-20T06:55:38,42.805,6.029,CST-1368DR,4293,4676,11562,01.202,552
2023-05-20T06:58:39,42.805,6.029,CST-1368DR,4293,4680,11572,01.199,552
2023-05-20T07:01:41,42.805,6.029,CST-1368DR,4293,4692,11603,01.188,552
2023-05-20T07:04:43,42.805,6.029,CST-1368DR,4293,4695,11610,01.186,552
2023-05-20T07:07:44,42.805,6.029,CST-1368DR,4293,4680,11572,01.199,552
2023-05-20T07:10:46,42.805,6.029,CST-1368DR,4293,4683,11581,01.196,552
2023-05-20T07:13:47,42.805,6.029,CST-1368DR,4293,4679,11569,01.200,552
2023-05-20T07:16:49,42.805,6.029,CST-1368DR,4293,4679,11570,01.200,552
2023-05-20T07:19:51,42.805,6.029,CST-1368DR,4293,4682,11579,01.196,552
2023-05-20T07:22:52,42.805,6.029,CST-1368DR,4293,4697,11614,01.184,552
2023-05-20T07:25:54,42.805,6.029,CST-1368DR,4293,4679,11570,01.200,552
2023-05-20T07:28:55,42.805,6.029,CST-1368DR,4293,4688,11592,01.192,552
2023-05-20T07:31:57,42.805,6.029,CST-1368DR,4293,4687,11590,01.193,552
2023-05-20T07:34:58,42.805,6.029,CST-1368DR,4292,4676,11566,01.201,552
2023-05-20T07:38:00,42.805,6.029,CST-1368DR,4293,4685,11584,01.195,552
2023-05-20T07:41:02,42.805,6.029,CST-1368DR,4293,4681,11575,01.198,552
2023-05-20T07:44:03,42.805,6.029,CST-1368DR,4293,4677,11564,01.202,552
2023-05-20T07:47:05,42.805,6.029,CST-1368DR,4293,4679,11570,01.200,552
2023-05-20T07:50:06,42.805,6.029,CST-1368DR,4293,4684,11583,01.195,552
2023-05-20T07:53:08,42.805,6.029,CST-1368DR,4293,4689,11595,01.191,552
2023-05-20T07:56:09,42.805,6.029,CST-1368DR,4293,4688,11593,01.192,552
2023-05-20T07:59:11,42.805,6.029,CST-1368DR,4293,4685,11586,01.194,552
2023-05-20T08:02:13,42.805,6.029,CST-1368DR,4292,4681,11578,01.197,552
2023-05-20T08:05:14,42.805,6.029,CST-1368DR,4293,4697,11614,01.184,552
2023-05-20T08:08:16,42.805,6.029,CST-1368DR,4293,4685,11586,01.194,552
2023-05-20T08:11:17,42.805,6.029,CST-1368DR,4293,4681,11576,01.197,552
2023-05-20T08:14:19,42.805,6.029,CST-1368DR,4293,4682,11577,01.197,552
2023-05-20T08:17:21,42.805,6.029,CST-1368DR,4293,4678,11569,01.200,552
2023-05-20T08:20:22,42.805,6.029,CST-1368DR,4293,4686,11587,01.194,552
2023-05-20T08:23:24,42.805,6.029,CST-1368DR,4293,4686,11587,01.194,552
2023-05-20T08:26:25,42.805,6.029,CST-1368DR,4292,4679,11574,01.198,552
2023-05-20T08:29:27,42.805,6.029,CST-1368DR,4293,4691,11600,01.189,552
2023-05-20T08:32:28,42.805,6.029,CST-1368DR,4293,4687,11590,01.193,552
2023-05-20T08:35:30,42.805,6.029,CST-1368DR,4293,4692,11603,01.188,552
2023-05-20T08:38:32,42.805,6.029,CST-1368DR,4293,4692,11603,01.188,552
2023-05-20T08:41:33,42.805,6.029,CST-1368DR,4293,4687,11589,01.193,552
2023-05-20T08:44:35,42.805,6.029,CST-1368DR,4293,4691,11601,01.189,552
2023-05-20T08:47:36,42.805,6.029,CST-1368DR,4293,4681,11576,01.197,552
2023-05-20T08:50:38,42.805,6.029,CST-1368DR,4292,4674,11561,01.203,551
2023-05-20T08:53:39,42.805,6.029,CST-1368DR,4293,4680,11572,01.199,552
2023-05-20T08:56:41,42.805,6.029,CST-1368DR,4293,4679,11570,01.200,552
2023-05-20T08:59:43,42.805,6.029,CST-1368DR,4293,4674,11559,01.203,552
2023-05-20T09:02:44,42.805,6.029,CST-1368DR,4293,4682,11579,01.196,552
2023-05-20T09:05:46,42.805,6.029,CST-1368DR,4293,4674,11559,01.203,552
2023-05-20T09:08:47,42.805,6.029,CST-1368DR,4292,4676,11566,01.201,552
2023-05-20T09:11:49,42.805,6.029,CST-1368DR,4293,4677,11565,01.201,552
2023-05-20T09:14:51,42.805,6.029,CST-1368DR,4293,4675,11561,01.203,552
2023-05-20T09:17:52,42.805,6.029,CST-1368DR,4292,4674,11561,01.203,552
2023-05-20T09:20:54,42.805,6.029,CST-1368DR,4293,4676,11564,01.202,552
2023-05-20T09:23:55,42.805,6.029,CST-1368DR,4292,4675,11563,01.202,552
2023-05-20T09:26:57,42.805,6.029,CST-1368DR,4292,4671,11553,01.205,552
2023-05-20T09:29:58,42.805,6.029,CST-1368DR,4292,4673,11558,01.204,552
2023-05-20T09:33:00,42.805,6.029,CST-1368DR,4293,4676,11563,01.202,552
2023-05-20T09:36:02,42.805,6.029,CST-1368DR,4293,4674,11557,01.204,552
2023-05-20T09:39:03,42.805,6.029,CST-1368DR,4293,4677,11564,01.202,552
2023-05-20T09:42:05,42.805,6.029,CST-1368DR,4293,4677,11566,01.201,552
2023-05-20T09:45:06,42.805,6.029,CST-1368DR,4292,4675,11563,01.202,552
2023-05-20T09:48:08,42.805,6.029,CST-1368DR,4293,4677,11564,01.202,552
2023-05-20T09:51:09,42.805,6.029,CST-1368DR,4292,4675,11563,01.202,552
2023-05-20T09:54:11,42.805,6.029,CST-1368DR,4293,4676,11563,01.202,552
2023-05-20T09:57:13,42.805,6.029,CST-1368DR,4292,4674,11560,01.203,552
2023-05-20T10:00:14,42.805,6.029,CST-1368DR,4292,4673,11558,01.204,552
2023-05-20T10:03:16,42.805,6.029,CST-1368DR,4292,4674,11561,01.203,552
2023-05-20T10:06:17,42.805,6.029,CST-1368DR,4293,4674,11559,01.203,552
2023-05-20T10:09:19,42.805,6.029,CST-1368DR,4292,4675,11563,01.202,551
2023-05-20T10:12:20,42.805,6.029,CST-1368DR,4292,4679,11573,01.198,552
2023-05-20T10:15:22,42.805,6.029,CST-1368DR,4292,4673,11559,01.203,552
2023-05-20T10:18:24,42.805,6.029,CST-1368DR,4292,4674,11560,01.203,552
2023-05-20T10:21:25,42.805,6.029,CST-1368DR,4293,4673,11555,01.205,552
2023-05-20T10:24:27,42.805,6.029,CST-1368DR,4292,4677,11568,01.200,552
2023-05-20T10:27:28,42.805,6.029,CST-1368DR,4293,4675,11560,01.203,552
2023-05-20T10:30:31,42.805,6.029,CST-1368DR,4293,4677,11564,01.202,552
2023-05-20T10:33:32,42.805,6.029,CST-1368DR,4292,4678,11571,01.199,552
2023-05-20T10:36:34,42.805,6.029,CST-1368DR,4293,4678,11569,01.200,552
2023-05-20T10:39:35,42.805,6.029,CST-1368DR,4292,4672,11555,01.205,552
2023-05-20T10:42:37,42.805,6.029,CST-1368DR,4292,4674,11561,01.203,552
2023-05-20T10:45:39,42.805,6.029,CST-1368DR,4292,4675,11562,01.202,552
2023-05-20T10:48:40,42.805,6.029,CST-1368DR,4292,4673,11558,01.204,552
2023-05-20T10:51:42,42.805,6.029,CST-1368DR,4292,4679,11574,01.198,552
2023-05-20T10:54:43,42.805,6.029,CST-1368DR,4292,4676,11565,01.201,552
2023-05-20T10:57:45,42.805,6.029,CST-1368DR,4292,4676,11565,01.201,552
2023-05-20T11:00:46,42.805,6.029,CST-1368DR,4292,4677,11567,01.201,552
2023-05-20T11:03:48,42.805,6.029,CST-1368DR,4292,4676,11565,01.201,552
2023-05-20T11:06:50,42.805,6.029,CST-1368DR,4293,4677,11566,01.201,552
2023-05-20T11:09:51,42.805,6.029,CST-1368DR,4293,4682,11579,01.196,552
2023-05-20T11:12:53,42.805,6.029,CST-1368DR,4292,4690,11601,01.189,552
2023-05-20T11:15:54,42.805,6.029,CST-1368DR,4292,4680,11576,01.197,552
2023-05-20T11:18:56,42.805,6.029,CST-1368DR,4292,4673,11558,01.204,552
2023-05-20T11:21:58,42.805,6.029,CST-1368DR,4292,4676,11565,01.201,552
2023-05-20T11:24:59,42.805,6.029,CST-1368DR,4292,4673,11557,01.204,552
2023-05-20T11:28:01,42.805,6.029,CST-1368DR,4292,4671,11552,01.206,552
2023-05-20T11:31:02,42.805,6.029,CST-1368DR,4292,4682,11581,01.196,552
2023-05-20T11:34:04,42.805,6.029,CST-1368DR,4292,4673,11559,01.203,552
2023-05-20T11:37:05,42.805,6.029,CST-1368DR,4292,4676,11565,01.201,552
2023-05-20T11:40:07,42.805,6.029,CST-1368DR,4292,4674,11561,01.203,552
2023-05-20T11:43:09,42.805,6.029,CST-1368DR,4292,4682,11580,01.196,551
2023-05-20T11:46:10,42.805,6.029,CST-1368DR,4292,4679,11573,01.198,552
2023-05-20T11:49:12,42.805,6.029,CST-1368DR,4292,4676,11565,01.201,552
2023-05-20T11:52:13,42.805,6.029,CST-1368DR,4292,4677,11569,01.200,552
2023-05-20T11:55:15,42.805,6.029,CST-1368DR,4292,4677,11569,01.200,552
2023-05-20T11:58:16,42.805,6.029,CST-1368DR,4292,4678,11570,01.200,552
2023-05-20T12:01:18,42.805,6.029,CST-1368DR,4292,4677,11567,01.201,552
2023-05-20T12:04:20,42.805,6.029,CST-1368DR,4293,4686,11587,01.194,552
2023-05-20T12:07:21,42.805,6.029,CST-1368DR,4292,4682,11579,01.196,552
2023-05-20T12:10:23,42.805,6.029,CST-1368DR,4292,4675,11563,01.202,552
2023-05-20T12:13:24,42.805,6.029,CST-1368DR,4292,4683,11583,01.195,552
2023-05-20T12:16:26,42.805,6.029,CST-1368DR,4292,4687,11592,01.192,551
2023-05-20T12:19:28,42.805,6.029,CST-1368DR,4293,4690,11597,01.190,552
2023-05-20T12:22:29,42.805,6.029,CST-1368DR,4293,4695,11611,01.185,552
2023-05-20T12:25:31,42.805,6.029,CST-1368DR,4293,4698,11618,01.183,552
2023-05-20T12:28:32,42.805,6.029,CST-1368DR,4292,4686,11589,01.193,552
2023-05-20T12:31:34,42.805,6.029,CST-1368DR,4293,4692,11603,01.188,552
2023-05-20T12:34:35,42.805,6.029,CST-1368DR,4292,4680,11574,01.198,552
2023-05-20T12:37:37,42.805,6.029,CST-1368DR,4292,4677,11568,01.200,552
2023-05-20T12:40:39,42.805,6.029,CST-1368DR,4293,4688,11592,01.192,552
2023-05-20T12:43:40,42.805,6.029,CST-1368DR,4292,4689,11597,01.190,552
2023-05-20T12:46:42,42.805,6.029,CST-1368DR,4292,4682,11581,01.196,552
2023-05-20T12:49:43,42.805,6.029,CST-1368DR,4292,4680,11575,01.198,552
2023-05-20T12:52:45,42.805,6.029,CST-1368DR,4292,4671,11553,01.205,552
2023-05-20T12:55:46,42.805,6.029,CST-1368DR,4292,4683,11583,01.195,552
2023-05-20T12:58:48,42.805,6.029,CST-1368DR,4293,4693,11606,01.187,552
2023-05-20T13:01:50,42.805,6.029,CST-1368DR,4292,4674,11560,01.203,552
2023-05-20T13:04:51,42.805,6.029,CST-1368DR,4292,4699,11622,01.182,552
2023-05-20T13:07:53,42.805,6.029,CST-1368DR,4292,4696,11615,01.184,552
2023-05-20T13:10:54,42.805,6.029,CST-1368DR,4292,4696,11616,01.184,552
2023-05-20T13:13:56,42.805,6.029,CST-1368DR,4292,4689,11597,01.190,552
2023-05-20T13:16:58,42.805,6.029,CST-1368DR,4292,4690,11600,01.189,552
2023-05-20T13:19:59,42.805,6.029,CST-1368DR,4292,4683,11582,01.195,552
2023-05-20T13:23:01,42.805,6.029,CST-1368DR,4292,4688,11594,01.191,552
2023-05-20T13:26:02,42.805,6.029,CST-1368DR,4292,4695,11613,01.185,552
2023-05-20T13:29:04,42.805,6.029,CST-1368DR,4292,4692,11606,01.187,552
2023-05-20T13:32:05,42.805,6.029,CST-1368DR,4292,4680,11576,01.197,552
2023-05-20T13:35:07,42.805,6.029,CST-1368DR,4292,4681,11579,01.196,552
2023-05-20T13:38:09,42.805,6.029,CST-1368DR,4292,4696,11614,01.184,552
2023-05-20T13:41:10,42.805,6.029,CST-1368DR,4292,4683,11582,01.195,552
2023-05-20T13:44:12,42.805,6.029,CST-1368DR,4292,4602,11381,01.265,552
2023-05-20T13:47:13,42.805,6.029,CST-1368DR,4292,4691,11603,01.188,552
2023-05-20T13:50:15,42.805,6.029,CST-1368DR,4292,4695,11612,01.185,552
2023-05-20T13:53:17,42.805,6.029,CST-1368DR,4292,4694,11611,01.185,552
2023-05-20T13:56:18,42.805,6.029,CST-1368DR,4292,4685,11589,01.193,552
2023-05-20T13:59:20,42.805,6.029,CST-1368DR,4292,4691,11602,01.188,552
2023-05-20T14:02:21,42.805,6.029,CST-1368DR,4293,4690,11598,01.190,552
2023-05-20T14:05:23,42.805,6.029,CST-1368DR,4292,4690,11599,01.190,552
2023-05-20T14:08:24,42.805,6.029,CST-1368DR,4292,4696,11616,01.184,552
2023-05-20T14:11:26,42.805,6.029,CST-1368DR,4292,4693,11608,01.186,552
2023-05-20T14:14:28,42.805,6.029,CST-1368DR,4292,4695,11612,01.185,552
2023-05-20T14:17:29,42.805,6.029,CST-1368DR,4293,4700,11622,01.182,552
2023-05-20T14:20:31,42.805,6.029,CST-1368DR,4292,4695,11612,01.185,552
2023-05-20T14:23:32,42.805,6.029,CST-1368DR,4292,4694,11609,01.186,552
2023-05-20T14:26:34,42.805,6.029,CST-1368DR,4292,4697,11616,01.184,552
2023-05-20T14:29:35,42.805,6.029,CST-1368DR,4292,4689,11598,01.190,552
2023-05-20T14:32:37,42.805,6.029,CST-1368DR,4292,4681,11578,01.197,552
2023-05-20T14:35:39,42.805,6.029,CST-1368DR,4292,4692,11606,01.187,552
2023-05-20T14:38:41,42.805,6.029,CST-1368DR,4292,4691,11603,01.188,552
2023-05-20T14:41:42,42.805,6.029,CST-1368DR,4292,4689,11599,01.190,552
2023-05-20T14:44:44,42.805,6.029,CST-1368DR,4292,4686,11589,01.193,552
2023-05-20T14:47:45,42.805,6.029,CST-1368DR,4292,4692,11606,01.187,552
2023-05-20T14:50:47,42.805,6.029,CST-1368DR,4292,4690,11600,01.189,552
2023-05-20T14:53:48,42.805,6.029,CST-1368DR,4292,4685,11589,01.193,552
2023-05-20T14:56:50,42.805,6.029,CST-1368DR,4292,4680,11575,01.198,552
2023-05-20T14:59:52,42.805,6.029,CST-1368DR,4292,4677,11569,01.200,552
2023-05-20T15:02:53,42.805,6.029,CST-1368DR,4293,4725,11684,01.160,552
2023-05-20T15:05:55,42.805,6.029,CST-1368DR,4293,4726,11687,01.159,552
2023-05-20T15:08:56,42.805,6.029,CST-1368DR,4293,4727,11690,01.158,552
2023-05-20T15:11:58,42.805,6.029,CST-1368DR,4293,4726,11687,01.159,552
2023-05-20T15:14:59,42.805,6.029,CST-1368DR,4293,4726,11687,01.159,552
2023-05-20T15:18:01,42.805,6.029,CST-1368DR,4293,4725,11685,01.160,552
2023-05-20T15:21:03,42.805,6.029,CST-1368DR,4293,4728,11691,01.158,552
2023-05-20T15:24:04,42.805,6.029,CST-1368DR,4293,4726,11686,01.160,552
2023-05-20T15:27:06,42.805,6.029,CST-1368DR,4293,4725,11683,01.161,552
2023-05-20T15:30:07,42.805,6.029,CST-1368DR,4293,4725,11683,01.161,552
2023-05-20T15:33:09,42.805,6.029,CST-1368DR,4293,4725,11684,01.160,552
2023-05-20T15:36:10,42.805,6.029,CST-1368DR,4293,4726,11687,01.159,552
2023-05-20T15:39:12,42.805,6.029,CST-1368DR,4293,4725,11684,01.160,552
2023-05-20T15:42:14,42.805,6.029,CST-1368DR,4293,4724,11681,01.161,552
2023-05-20T15:45:15,42.805,6.029,CST-1368DR,4293,4728,11692,01.158,551
2023-05-20T15:48:17,42.805,6.029,CST-1368DR,4293,4727,11689,01.159,552
2023-05-20T15:51:18,42.805,6.029,CST-1368DR,4293,4725,11684,01.160,552
2023-05-20T15:54:20,42.805,6.029,CST-1368DR,4293,4728,11692,01.158,552
2023-05-20T15:57:22,42.805,6.029,CST-1368DR,4293,4728,11692,01.158,552
2023-05-20T16:00:23,42.805,6.029,CST-1368DR,4293,4724,11682,01.161,552
2023-05-20T16:03:25,42.805,6.029,CST-1368DR,4293,4725,11683,01.161,552
2023-05-20T16:06:26,42.805,6.029,CST-1368DR,4293,4726,11686,01.160,552
2023-05-20T16:09:28,42.805,6.029,CST-1368DR,4293,4726,11687,01.159,552
2023-05-20T16:12:29,42.805,6.029,CST-1368DR,4292,4725,11686,01.160,552
2023-05-20T16:15:31,42.805,6.029,CST-1368DR,4293,4726,11686,01.160,552
2023-05-20T16:18:33,42.805,6.029,CST-1368DR,4293,4721,11673,01.164,551
2023-05-20T16:21:34,42.805,6.029,CST-1368DR,4293,4720,11672,01.164,552
2023-05-20T16:24:36,42.805,6.029,CST-1368DR,4293,4723,11679,01.162,552
2023-05-20T16:27:37,42.805,6.029,CST-1368DR,4293,4724,11681,01.161,552
2023-05-20T16:30:40,42.805,6.029,CST-1368DR,4292,4725,11687,01.159,552
2023-05-20T16:33:42,42.805,6.029,CST-1368DR,4293,4720,11672,01.164,552
2023-05-20T16:36:43,42.805,6.029,CST-1368DR,4293,4723,11679,01.162,552